User: anonymous   Login
Location: Muenchen
(48.1800°N, 11.5800°E)
Time: 13:17:43
(UTC+01:00)
Language:

Tiros 1 - Orbit

View from above orbital plane
View from above orbital plane
View from above satellite
View from above satellite

Ground track
Ground track

The orbit data is extracted from the following two-line orbital elements,

1 00029U 60002B   15086.63237150  .00000743  00000-0  14340-3 0  9995
2 00029 048.3802 314.1781 0024392 347.8160 012.2159 14.73708920937035
Epoch (UTC): 27 March 2015 15:10:36
Eccentricity: 0.0024392
inclination: 48.3802°
perigee height: 632 km
apogee height: 666 km
right ascension of ascending node: 314.1781°
argument of perigee: 347.8160°
revolutions per day: 14.73708920
mean anomaly at epoch: 12.2159°
orbit number at epoch: 93703

The dashed part of the orbit path shows where the satellite is in the earth's shadow,  

DLR